Time,TemperatureF,DewpointF,PressureIn,WindDirection,WindDirectionDegrees,WindSpeedMPH,WindSpeedGustMPH,Humidity,HourlyPrecipIn,Conditions,Clouds,dailyrainin,SoftwareType,DateUTC
2013-10-12 00:06:00,52.1,48.0,30.19,ENE,70,5.0,10.0,85,0.00,,,0.00,weatherlink.com 1.10,2013-10-11 23:06:00,
2013-10-12 00:21:00,52.0,48.0,30.19,ENE,75,4.0,12.0,85,0.00,,,0.00,weatherlink.com 1.10,2013-10-11 23:21:00,
2013-10-12 00:37:00,52.0,47.0,30.19,ENE,64,4.0,12.0,84,0.00,,,0.00,weatherlink.com 1.10,2013-10-11 23:37:00,
2013-10-12 00:52:00,51.9,47.0,30.19,ENE,70,7.0,13.0,84,0.00,,,0.00,weatherlink.com 1.10,2013-10-11 23:52:00,
2013-10-12 01:07:00,51.6,47.0,30.18,SE,130,5.0,9.0,83,0.00,,,0.00,weatherlink.com 1.10,2013-10-12 00:07:00,
2013-10-12 01:22:00,51.2,47.0,30.18,ESE,108,1.0,8.0,84,0.00,,,0.00,weatherlink.com 1.10,2013-10-12 00:22:00,
2013-10-12 01:37:00,50.8,46.0,30.18,ESE,111,0.0,7.0,83,0.00,,,0.00,weatherlink.com 1.10,2013-10-12 00:37:00,
2013-10-12 01:52:00,50.6,46.0,30.17,ENE,65,5.0,6.0,84,0.00,,,0.00,weatherlink.com 1.10,2013-10-12 00:52:00,
2013-10-12 02:07:00,50.7,46.0,30.17,ESE,111,7.0,8.0,84,0.00,,,0.00,weatherlink.com 1.10,2013-10-12 01:07:00,
2013-10-12 02:23:00,50.9,46.0,30.17,East,91,3.0,6.0,84,0.00,,,0.00,weatherlink.com 1.10,2013-10-12 01:23:00,
2013-10-12 02:37:00,51.0,46.0,30.16,East,81,5.0,9.0,84,0.00,,,0.00,weatherlink.com 1.10,2013-10-12 01:37:00,
2013-10-12 02:52:00,51.1,46.0,30.16,ENE,65,3.0,9.0,84,0.00,,,0.00,weatherlink.com 1.10,2013-10-12 01:52:00,
2013-10-12 03:07:00,51.1,47.0,30.16,SE,125,5.0,9.0,85,0.00,,,0.00,weatherlink.com 1.10,2013-10-12 02:07:00,
2013-10-12 03:22:00,51.1,47.0,30.15,NE,36,2.0,10.0,85,0.00,,,0.00,weatherlink.com 1.10,2013-10-12 02:22:00,
2013-10-12 03:37:00,51.0,47.0,30.15,NE,47,5.0,8.0,85,0.00,,,0.00,weatherlink.com 1.10,2013-10-12 02:37:00,
2013-10-12 03:52:00,51.1,46.0,30.14,ENE,57,3.0,10.0,84,0.00,,,0.00,weatherlink.com 1.10,2013-10-12 02:52:00,
2013-10-12 04:07:00,51.1,46.0,30.14,NE,40,5.0,10.0,83,0.00,,,0.00,weatherlink.com 1.10,2013-10-12 03:07:00,
2013-10-12 04:22:00,51.0,46.0,30.14,NNW,335,3.0,10.0,83,0.00,,,0.00,weatherlink.com 1.10,2013-10-12 03:22:00,
2013-10-12 04:37:00,50.9,46.0,30.14,ESE,118,5.0,10.0,83,0.00,,,0.00,weatherlink.com 1.10,2013-10-12 03:37:00,
2013-10-12 04:52:00,50.8,46.0,30.14,SE,133,3.0,11.0,83,0.00,,,0.00,weatherlink.com 1.10,2013-10-12 03:52:00,
2013-10-12 05:07:00,50.6,46.0,30.13,East,92,3.0,8.0,84,0.00,,,0.00,weatherlink.com 1.10,2013-10-12 04:07:00,
2013-10-12 05:22:00,50.8,46.0,30.13,ESE,110,4.0,11.0,84,0.00,,,0.00,weatherlink.com 1.10,2013-10-12 04:22:00,
2013-10-12 05:37:00,50.6,46.0,30.13,ESE,114,8.0,12.0,85,0.00,,,0.00,weatherlink.com 1.10,2013-10-12 04:37:00,
2013-10-12 05:52:00,50.7,46.0,30.13,NE,43,5.0,9.0,85,0.00,,,0.00,weatherlink.com 1.10,2013-10-12 04:52:00,
2013-10-12 06:07:00,50.9,46.0,30.13,ENE,68,8.0,9.0,84,0.00,,,0.00,weatherlink.com 1.10,2013-10-12 05:07:00,
2013-10-12 06:22:00,50.9,47.0,30.13,NE,47,7.0,7.0,85,0.00,,,0.00,weatherlink.com 1.10,2013-10-12 05:22:00,
2013-10-12 06:37:00,51.0,47.0,30.13,NE,44,2.0,8.0,85,0.00,,,0.00,weatherlink.com 1.10,2013-10-12 05:37:00,
2013-10-12 06:52:00,51.1,47.0,30.13,NE,43,6.0,8.0,85,0.00,,,0.00,weatherlink.com 1.10,2013-10-12 05:52:00,
2013-10-12 07:07:00,51.2,47.0,30.12,NE,53,1.0,5.0,86,0.00,,,0.00,weatherlink.com 1.10,2013-10-12 06:07:00,
2013-10-12 07:22:00,51.4,47.0,30.12,East,101,6.0,9.0,85,0.00,,,0.00,weatherlink.com 1.10,2013-10-12 06:22:00,
2013-10-12 07:37:00,51.9,46.0,30.12,ENE,72,5.0,9.0,80,0.00,,,0.00,weatherlink.com 1.10,2013-10-12 06:37:00,
2013-10-12 07:52:00,52.1,46.0,30.12,ESE,108,4.0,9.0,80,0.00,,,0.00,weatherlink.com 1.10,2013-10-12 06:52:00,
2013-10-12 08:07:00,52.2,46.0,30.12,ENE,70,4.0,9.0,80,0.00,,,0.00,weatherlink.com 1.10,2013-10-12 07:07:00,
2013-10-12 08:22:00,52.3,47.0,30.12,East,82,3.0,7.0,81,0.00,,,0.00,weatherlink.com 1.10,2013-10-12 07:22:00,
2013-10-12 08:37:00,52.3,47.0,30.12,NNE,20,3.0,9.0,83,0.00,,,0.00,weatherlink.com 1.10,2013-10-12 07:37:00,
2013-10-12 08:52:00,52.2,47.0,30.12,NE,56,2.0,9.0,83,0.00,,,0.00,weatherlink.com 1.10,2013-10-12 07:52:00,
2013-10-12 09:07:00,52.2,48.0,30.12,East,91,6.0,7.0,84,0.00,,,0.00,weatherlink.com 1.10,2013-10-12 08:07:00,
2013-10-12 09:22:00,52.2,48.0,30.12,East,94,6.0,7.0,85,0.00,,,0.00,weatherlink.com 1.10,2013-10-12 08:22:00,
2013-10-12 09:38:00,52.4,48.0,30.12,ESE,116,8.0,9.0,85,0.00,,,0.00,weatherlink.com 1.10,2013-10-12 08:38:00,
2013-10-12 09:53:00,52.6,48.0,30.12,East,98,4.0,13.0,85,0.00,,,0.00,weatherlink.com 1.10,2013-10-12 08:53:00,
2013-10-12 10:08:00,52.7,48.0,30.12,NE,54,4.0,11.0,84,0.00,,,0.00,weatherlink.com 1.10,2013-10-12 09:08:00,
2013-10-12 10:23:00,52.4,48.0,30.11,East,82,5.0,11.0,84,0.00,,,0.00,weatherlink.com 1.10,2013-10-12 09:23:00,
2013-10-12 10:38:00,52.4,48.0,30.11,ESE,107,6.0,13.0,84,0.00,,,0.00,weatherlink.com 1.10,2013-10-12 09:38:00,
2013-10-12 10:53:00,52.7,48.0,30.11,East,92,6.0,8.0,83,0.00,,,0.00,weatherlink.com 1.10,2013-10-12 09:53:00,
2013-10-12 11:08:00,53.0,47.0,30.11,NNW,344,7.0,8.0,81,0.00,,,0.00,weatherlink.com 1.10,2013-10-12 10:08:00,
2013-10-12 11:23:00,53.1,47.0,30.11,SSE,159,2.0,9.0,79,0.00,,,0.00,weatherlink.com 1.10,2013-10-12 10:23:00,
2013-10-12 11:38:00,53.3,47.0,30.11,NNE,13,4.0,10.0,79,0.00,,,0.00,weatherlink.com 1.10,2013-10-12 10:38:00,
2013-10-12 11:53:00,53.2,47.0,30.11,ENE,60,5.0,13.0,79,0.00,,,0.00,weatherlink.com 1.10,2013-10-12 10:53:00,
2013-10-12 12:08:00,53.2,47.0,30.11,East,101,8.0,11.0,80,0.00,,,0.00,weatherlink.com 1.10,2013-10-12 11:08:00,
2013-10-12 12:23:00,53.3,48.0,30.10,NE,51,6.0,9.0,81,0.00,,,0.00,weatherlink.com 1.10,2013-10-12 11:23:00,
2013-10-12 12:38:00,53.5,48.0,30.10,ENE,72,4.0,8.0,80,0.00,,,0.00,weatherlink.com 1.10,2013-10-12 11:38:00,
2013-10-12 12:53:00,53.6,48.0,30.11,NE,49,3.0,8.0,80,0.00,,,0.00,weatherlink.com 1.10,2013-10-12 11:53:00,
2013-10-12 13:08:00,53.6,48.0,30.10,ESE,109,6.0,9.0,81,0.00,,,0.00,weatherlink.com 1.10,2013-10-12 12:08:00,
2013-10-12 13:23:00,53.7,48.0,30.10,East,96,7.0,10.0,81,0.00,,,0.00,weatherlink.com 1.10,2013-10-12 12:23:00,
2013-10-12 13:38:00,53.8,48.0,30.10,ENE,74,5.0,9.0,82,0.00,,,0.00,weatherlink.com 1.10,2013-10-12 12:38:00,
2013-10-12 13:53:00,53.9,49.0,30.10,ENE,66,3.0,7.0,83,0.00,,,0.00,weatherlink.com 1.10,2013-10-12 12:53:00,
2013-10-12 14:08:00,53.8,48.0,30.09,ENE,62,2.0,9.0,82,0.00,,,0.00,weatherlink.com 1.10,2013-10-12 13:08:00,
2013-10-12 14:23:00,53.9,49.0,30.08,East,92,6.0,10.0,82,0.00,,,0.00,weatherlink.com 1.10,2013-10-12 13:23:00,
2013-10-12 14:38:00,54.1,49.0,30.07,East,94,5.0,12.0,82,0.00,,,0.00,weatherlink.com 1.10,2013-10-12 13:38:00,
2013-10-12 14:53:00,54.2,49.0,30.07,East,79,4.0,11.0,82,0.00,,,0.00,weatherlink.com 1.10,2013-10-12 13:53:00,
2013-10-12 15:08:00,54.2,49.0,30.07,SSE,163,1.0,8.0,82,0.00,,,0.00,weatherlink.com 1.10,2013-10-12 14:08:00,
2013-10-12 15:23:00,54.2,49.0,30.07,ENE,68,6.0,12.0,82,0.00,,,0.00,weatherlink.com 1.10,2013-10-12 14:23:00,
2013-10-12 15:38:00,54.1,49.0,30.07,SSE,160,2.0,11.0,82,0.00,,,0.00,weatherlink.com 1.10,2013-10-12 14:38:00,
2013-10-12 15:53:00,54.1,49.0,30.07,ENE,66,2.0,6.0,83,0.00,,,0.00,weatherlink.com 1.10,2013-10-12 14:53:00,
2013-10-12 16:08:00,54.0,49.0,30.07,ENE,64,3.0,8.0,84,0.00,,,0.00,weatherlink.com 1.10,2013-10-12 15:08:00,
2013-10-12 16:23:00,53.9,50.0,30.06,ENE,72,9.0,13.0,85,0.00,,,0.00,weatherlink.com 1.10,2013-10-12 15:23:00,
2013-10-12 16:38:00,53.9,49.0,30.06,East,97,5.0,10.0,84,0.00,,,0.00,weatherlink.com 1.10,2013-10-12 15:38:00,
2013-10-12 16:53:00,53.9,49.0,30.06,ESE,104,6.0,7.0,84,0.00,,,0.00,weatherlink.com 1.10,2013-10-12 15:53:00,
2013-10-12 17:08:00,53.9,50.0,30.05,NNW,344,3.0,6.0,86,0.00,,,0.00,weatherlink.com 1.10,2013-10-12 16:08:00,
2013-10-12 17:23:00,53.9,50.0,30.05,NE,43,6.0,8.0,86,0.00,,,0.00,weatherlink.com 1.10,2013-10-12 16:23:00,
2013-10-12 17:38:00,54.0,50.0,30.05,ESE,117,1.0,8.0,87,0.00,,,0.00,weatherlink.com 1.10,2013-10-12 16:38:00,
2013-10-12 17:53:00,54.0,50.0,30.04,ENE,68,2.0,7.0,87,0.00,,,0.00,weatherlink.com 1.10,2013-10-12 16:53:00,
2013-10-12 18:08:00,54.1,50.0,30.04,NNE,32,7.0,8.0,87,0.00,,,0.00,weatherlink.com 1.10,2013-10-12 17:08:00,
2013-10-12 18:24:00,54.2,50.0,30.05,ENE,77,3.0,5.0,86,0.00,,,0.00,weatherlink.com 1.10,2013-10-12 17:24:00,
2013-10-12 18:39:00,54.3,50.0,30.04,ESE,105,3.0,5.0,86,0.00,,,0.00,weatherlink.com 1.10,2013-10-12 17:39:00,
2013-10-12 18:54:00,54.3,51.0,30.04,ENE,70,0.0,5.0,87,0.00,,,0.00,weatherlink.com 1.10,2013-10-12 17:54:00,
2013-10-12 19:09:00,54.3,51.0,30.04,ESE,122,3.0,5.0,87,0.00,,,0.00,weatherlink.com 1.10,2013-10-12 18:09:00,
2013-10-12 19:24:00,54.4,51.0,30.04,ESE,118,2.0,5.0,87,0.00,,,0.00,weatherlink.com 1.10,2013-10-12 18:24:00,
2013-10-12 19:39:00,54.5,51.0,30.04,SSE,167,0.0,6.0,87,0.00,,,0.00,weatherlink.com 1.10,2013-10-12 18:39:00,
2013-10-12 19:54:00,54.5,51.0,30.04,East,88,1.0,7.0,87,0.00,,,0.00,weatherlink.com 1.10,2013-10-12 18:54:00,
2013-10-12 20:09:00,54.5,51.0,30.03,East,97,2.0,6.0,87,0.00,,,0.00,weatherlink.com 1.10,2013-10-12 19:09:00,
2013-10-12 20:24:00,54.5,51.0,30.03,East,91,1.0,5.0,87,0.00,,,0.00,weatherlink.com 1.10,2013-10-12 19:24:00,
2013-10-12 20:39:00,54.6,51.0,30.03,NE,47,3.0,5.0,88,0.00,,,0.00,weatherlink.com 1.10,2013-10-12 19:39:00,
2013-10-12 20:54:00,54.5,51.0,30.03,East,101,2.0,7.0,89,0.00,,,0.00,weatherlink.com 1.10,2013-10-12 19:54:00,
2013-10-12 21:09:00,54.5,51.0,30.03,East,96,1.0,3.0,89,0.00,,,0.00,weatherlink.com 1.10,2013-10-12 20:09:00,
2013-10-12 21:24:00,54.5,52.0,30.02,East,94,3.0,4.0,90,0.00,,,0.00,weatherlink.com 1.10,2013-10-12 20:24:00,
2013-10-12 21:39:00,54.5,52.0,30.03,East,88,1.0,3.0,90,0.00,,,0.00,weatherlink.com 1.10,2013-10-12 20:39:00,
2013-10-12 21:54:00,54.5,52.0,30.03,ESE,103,2.0,5.0,90,0.00,,,0.00,weatherlink.com 1.10,2013-10-12 20:54:00,
2013-10-12 22:09:00,54.4,52.0,30.03,East,79,4.0,6.0,90,0.00,,,0.00,weatherlink.com 1.10,2013-10-12 21:09:00,
2013-10-12 22:24:00,54.4,52.0,30.02,East,97,3.0,5.0,90,0.00,,,0.00,weatherlink.com 1.10,2013-10-12 21:24:00,
2013-10-12 22:39:00,54.3,52.0,30.02,East,88,4.0,6.0,90,0.00,,,0.00,weatherlink.com 1.10,2013-10-12 21:39:00,
2013-10-12 22:54:00,54.2,51.0,30.02,SE,142,1.0,5.0,90,0.00,,,0.00,weatherlink.com 1.10,2013-10-12 21:54:00,
2013-10-12 23:09:00,54.2,51.0,30.02,NE,53,4.0,4.0,90,0.00,,,0.00,weatherlink.com 1.10,2013-10-12 22:09:00,
2013-10-12 23:24:00,54.2,51.0,30.02,ESE,105,1.0,4.0,90,0.00,,,0.00,weatherlink.com 1.10,2013-10-12 22:24:00,
2013-10-12 23:39:00,54.1,51.0,30.00,NNE,12,2.0,3.0,90,0.00,,,0.00,weatherlink.com 1.10,2013-10-12 22:39:00,
2013-10-12 23:54:00,54.1,51.0,30.00,NNE,20,2.0,5.0,90,0.00,,,0.00,weatherlink.com 1.10,2013-10-12 22:54:00,